Regional Weather Roundup
Issued by NWS Albany, NY

Home | Current Version | Previous Version | Graphics & Text | Print | Product List | Glossary Off
Versions: 1 2 3 4 5 6 7 8 9 10 11 12 13 14 15 16 17 18 19 20 21 22 23 24 25 26 27 28

000
ASUS41 KALY 251510
RWRALY

NEW YORK STATE HOURLY WEATHER ROUNDUP
NATIONAL WEATHER SERVICE ALBANY NY
1100 AM EDT MON SEP 25 2017

NOTE: "FAIR" INDICATES FEW OR NO CLOUDS BELOW 12,000 FEET WITH NO
SIGNIFICANT WEATHER AND/OR NO OBSTRUCTIONS TO VISIBILITY.

NYZ032-033-038>043-046>054-057>066-NYZ062>081-082-084-251600-
EAST


CITY           SKY/WX    TMP DP  RH WIND       PRES   REMARKS
ALBANY         MOSUNNY   80  69  69 NW6       30.10F
GLENS FALLS    SUNNY     81  68  64 N5        30.10F
POUGHKEEPSIE   SUNNY     80  68  66 CALM      30.08F
NEWBURGH       SUNNY     81  72  74 CALM      30.12S
MONTGOMERY     SUNNY     80  69  69 NE5       30.10S
WHITE PLAINS   SUNNY     81  68  64 E5        30.09F
ISLIP          SUNNY     79  59  50 S3        30.07F
NEW YORK CITY  SUNNY     79  66  64 NE8       30.07S
CENTRAL PARK   SUNNY     81  65  58 NE8       30.10F
$$

NYZ005>009-017-018-044>046-055-056-251600-
CENTRAL


CITY           SKY/WX    TMP DP  RH WIND       PRES   REMARKS
FULTON         SUNNY     79  69  71 SE3       30.11F
SYRACUSE       PTSUNNY   77  67  71 CALM      30.10F
ROME           SUNNY     77  69  76 S5        30.12F
ELMIRA         SUNNY     73  68  84 CALM      30.13F
BINGHAMTON     SUNNY     77  66  68 VRB5      30.16S
MONTICELLO     SUNNY     80  67  64 VRB6      30.16S
$$

NYZ026>034-041>043-087-251600-
NORTH


CITY           SKY/WX    TMP DP  RH WIND       PRES   REMARKS
WATERTOWN      SUNNY     80  70  71 CALM      30.10F
FORT DRUM      NOT AVBL
OGDENSBURG     FAIR      82  70  66 CALM      30.10S
MASSENA        SUNNY     81  71  71 S3        30.10F
SARANAC LAKE   SUNNY     78  68  71 SW3       30.16F
PLATTSBURGH    SUNNY     78  69  73 SE5       30.09F
$$

NYZ001>004-010>016-019>021-085-251600-
WEST


CITY           SKY/WX    TMP DP  RH WIND       PRES   REMARKS
NIAGARA FALLS  SUNNY     85  68  56 E3        30.10F
BUFFALO        MOSUNNY   82  68  62 CALM      30.11F
DUNKIRK        SUNNY     83  68  60 SE10      30.11S
JAMESTOWN      MOSUNNY   76  67  73 S6        30.17S
WELLSVILLE     SUNNY     79  65  62 VRB7      30.20F
ROCHESTER      CLOUDY    78  69  73 SW3       30.12F
PENN YAN       SUNNY     78  67  68 W3        30.14F
$$

             KEY
       WCI = WIND CHILL INDEX
       VSB = VISIBILITY
       HX  = HEAT INDEX
$$




USA.gov is the U.S. government's official web portal to all federal, state and local government web resources and services.